Location: Newark
(7.0858°N, 171.3717°E)
Time: 13:41:49
(UTC+00:00)

Vanguard 1 Rocket - Pass Details

Date: 29 November 2020
Orbit: 655 x 4222 km, 34.3° (Epoch: 23 January)

Event Time Altitude Azimuth Distance (km) Brightness Sun altitude
Rises 11:28:42 0° 239° (WSW) 6,728 12.1 -70.4°
Reaches altitude 10° 11:32:30 10° 240° (WSW) 6,073 11.7 -71.0°
Enters shadow 11:40:56 36° 246° (WSW) 4,892 10.9 -72.3°
Exits shadow 12:23:37 - 51° (NE) 7,364 11.9 -75.5°
Sets 12:25:02 0° 52° (NE) 7,583 12.0 -75.5°
